Vorticity
nan nan nan nan nan nan nan nan nan nan nan nan nan nan nan nan nan nan nan nan nan nan nan nan nan nan nan nan nan nan nan nan nan nan nan nan nan nan nan nan nan nan nan
nan 7 6 5 5 6 5 5 6 6 6 5 5 5 5 6 6 5 5 5 4 3 5 4 4 4 5 6 6 7 7 6 7 8 9 8 8 7 5 5 6 6 nan
nan 5 6 7 5 5 5 5 5 5 5 5 5 5 5 5 6 5 5 5 5 4 3 3 4 4 5 5 5 5 5 5 6 6 4 4 10 7 3 7 8 5 nan
nan 4 8 8 5 6 5 5 6 6 5 5 5 6 5 4 4 4 4 4 3 3 4 4 4 5 6 6 7 5 4 4 4 3 4 6 9 8 5 6 5 6 nan
nan 6 10 7 6 5 5 5 5 5 5 5 4 4 5 4 4 4 4 3 4 4 4 5 5 5 7 6 5 6 7 5 4 5 4 5 8 10 7 5 4 5 nan
nan 8 9 6 5 5 5 4 5 4 4 3 4 4 3 4 4 3 4 5 5 6 6 5 5 6 5 4 5 5 6 6 6 6 6 8 7 8 8 5 5 5 nan
nan 7 8 7 5 5 4 4 4 4 4 3 3 4 4 3 3 4 5 6 7 7 5 6 8 7 5 5 6 6 5 5 8 9 7 6 10 11 7 7 6 5 nan
nan 6 8 7 5 5 5 5 4 4 3 3 4 4 3 4 5 6 6 7 7 6 6 5 6 6 6 5 6 7 7 7 8 7 8 8 11 13 8 6 5 6 nan
nan 5 7 7 7 5 4 5 4 3 3 3 3 4 5 6 7 8 7 7 5 6 6 5 4 4 5 6 6 6 8 8 8 7 7 7 7 10 10 6 7 6 nan
nan 5 6 6 5 6 7 6 4 4 4 4 5 5 5 8 9 8 6 5 5 5 5 6 6 5 5 6 6 6 6 8 7 9 8 6 12 18 11 8 8 7 nan
nan 5 6 6 6 6 6 7 8 5 6 5 3 6 11 10 9 10 9 8 5 5 5 6 6 6 6 10 12 11 11 5 10 10 8 8 15 19 13 10 10 10 nan
nan 7 6 6 6 6 6 7 7 6 6 7 8 8 8 8 10 11 7 8 13 9 10 9 10 11 10 12 12 13 15 7 4 11 10 10 11 9 9 11 10 12 nan
nan 6 6 6 7 6 6 7 6 8 8 8 8 9 7 4 5 7 9 8 8 11 12 10 13 13 12 8 9 13 5 10 8 8 9 7 6 8 15 15 13 13 nan
nan 7 7 7 7 6 7 7 6 7 7 8 8 7 6 6 7 7 6 7 8 8 8 9 9 10 7 11 13 10 7 6 7 7 11 12 11 9 10 11 13 15 nan
nan 8 8 8 9 9 7 8 8 8 7 8 8 6 6 7 7 8 8 8 9 8 8 10 10 10 9 9 9 8 8 7 8 7 10 11 9 7 8 8 9 10 nan
nan 6 8 8 9 8 9 9 8 7 7 6 8 9 8 7 10 9 8 8 10 10 7 8 7 9 12 9 8 7 9 8 6 7 9 8 6 5 5 5 6 6 nan
nan 6 6 6 7 6 6 6 7 8 8 8 9 8 8 8 6 7 8 8 8 8 8 8 8 8 11 10 9 7 7 8 7 7 7 7 6 6 5 4 5 5 nan
nan 6 6 7 6 5 4 6 7 8 7 7 7 10 9 7 6 6 6 7 9 9 10 8 9 9 9 9 7 8 9 7 7 7 6 7 6 6 6 5 4 3 nan
nan 5 7 8 6 5 5 6 5 8 12 10 8 9 10 7 5 6 6 8 10 10 8 9 8 8 10 10 9 8 10 9 8 7 7 7 8 6 8 7 2 3 nan
nan 7 7 8 6 6 6 7 9 8 9 11 11 8 8 6 6 5 6 9 10 9 8 8 8 10 8 9 13 9 7 11 10 8 8 7 7 6 7 6 4 6 nan
nan 8 8 7 6 6 8 8 8 10 8 10 11 8 7 10 9 6 8 9 9 7 9 9 9 8 8 10 10 10 11 11 9 7 8 8 8 7 7 7 7 8 nan
nan 6 8 7 7 5 6 9 9 9 9 11 9 9 8 7 9 7 7 8 9 8 7 9 10 10 8 10 11 8 8 6 9 9 9 11 7 8 8 7 7 8 nan
nan 7 7 8 7 7 6 4 7 8 9 9 9 9 10 7 8 8 7 8 8 8 8 8 8 9 9 7 10 11 8 9 8 10 9 10 9 7 10 9 6 7 nan
nan 6 7 7 7 7 7 6 8 7 6 7 8 9 10 9 8 8 7 8 7 7 8 9 9 10 8 8 7 8 12 13 7 8 9 9 12 12 10 10 9 7 nan
nan 7 6 7 6 7 7 6 6 6 6 8 9 10 9 10 11 9 7 7 7 8 8 8 8 9 11 10 9 8 6 9 10 11 7 7 9 13 14 12 9 5 nan
nan nan nan nan nan nan nan nan nan nan nan nan nan nan nan nan nan nan nan nan nan nan nan nan nan nan nan nan nan nan nan nan nan nan nan nan nan nan nan nan nan nan nan
CAPE
1006 1590 2203 1352 1521 1695 1866 1697 1709 1679 1687 1576 1663 1663 1708 1718 1657 1876 1674 1636 1418 1449 1401 1265 1215 1252 1219 1064 1164 817 738 1594 1659 1077 1445 1538 1638 1491 1893 1744 1647 1539 2436
1039 1431 2233 1877 2012 1640 1828 1866 1707 1655 1673 1517 1436 1572 1702 1631 1678 1618 1316 1622 1005 1117 1334 1404 1338 1114 1047 1203 773 1552 1447 1185 724 1534 1946 1445 1172 1706 2009 1838 1960 1971 2404
1071 1388 1933 2131 1722 1789 1747 1363 1322 1191 1456 1509 1867 1714 1640 1466 1237 1102 919 1065 1144 783 1062 1235 1329 1304 1228 1122 1107 923 968 1514 1356 1526 1393 1108 947 1910 1749 1938 2271 2124 2194
770 961 1547 2322 1945 1477 1100 1641 1432 1508 1614 1384 1085 1061 982 1035 986 954 958 929 916 974 991 969 992 1109 1265 1347 1475 1201 1013 757 1296 1769 1187 1215 940 1578 1786 1901 2149 2110 2189
522 969 1098 1680 1629 1306 1637 1552 1713 1686 1315 1544 1612 1587 1391 1105 962 809 709 594 518 549 885 1225 1350 1716 1545 1557 1659 1699 1626 1539 1174 954 765 785 591 823 1959 1980 2057 1951 2050
608 777 1583 1431 1372 1493 1709 1623 1521 1438 1314 1155 1000 855 710 625 566 480 558 922 1255 1185 1164 827 889 1389 1703 1712 1706 1841 1812 1961 1863 1131 928 693 729 1032 1821 1837 1541 1992 1979
775 1064 1141 1670 1392 1343 1244 1356 1374 1543 1205 921 699 577 493 456 648 1134 1547 1677 1448 1058 863 827 805 939 1231 1548 1577 1792 2058 2149 1804 1213 1102 1022 691 1742 1979 2211 2282 2023 2128
817 986 850 1133 1308 1187 788 851 1160 1030 838 690 572 538 583 967 1442 1777 1702 1582 1539 1368 866 815 1075 1118 1285 1573 1798 1942 2151 2239 2022 1279 1213 1015 935 2470 2600 2636 3135 2886 2465
790 688 673 820 983 617 874 535 735 699 631 613 708 727 1145 1477 1577 1332 1017 1588 1419 1288 1016 1081 928 1257 1652 1537 1500 1814 1864 2214 1865 1351 1140 701 1462 2231 2343 2606 2825 3268 3363
596 654 551 609 831 115 145 545 667 723 852 835 904 1088 1501 1700 1821 1334 1460 1627 1533 1421 1523 1463 1664 1990 2681 2965 2301 2049 2065 1999 1580 1330 1108 1119 1952 2284 2399 2608 2847 2593 2912
285 134 125 458 621 163 106 1026 1684 850 1029 1080 1068 1383 1965 951 541 1336 1284 2168 2565 1854 2198 2441 2534 3028 3085 2885 2573 2783 2414 1549 1199 1188 863 1790 2587 2117 2304 2151 2105 2739 2905
7 0 48 218 437 19 183 536 893 619 563 569 858 39 638 226 0 1168 1740 2259 2468 2965 3302 3330 3306 3134 2840 2075 1758 2019 1814 1085 1315 1518 1430 1399 1717 1406 1394 1253 1679 1853 2101
0 0 0 115 352 56 41 39 102 34 231 311 623 2 304 105 26 156 455 928 921 1339 1305 1481 1322 1847 1881 1627 959 1264 1245 1233 1206 1154 1170 1719 1411 1380 1192 1262 1347 1661 1771
0 0 0 71 111 0 0 0 0 30 271 853 720 0 197 466 443 450 529 800 1260 1191 661 575 937 1064 1083 958 885 1177 1230 1248 1110 1068 1468 2005 1980 1981 1533 1594 1601 1477 1162
0 0 0 0 22 0 1 40 74 252 257 618 780 457 379 735 896 1062 1132 502 864 1229 1406 705 773 1057 1140 988 957 1131 1314 1062 1011 1340 1152 1828 1811 1647 1129 1130 1077 1058 1337
0 0 0 2 41 10 517 139 50 1 19 390 832 1204 479 1053 1389 1550 1176 1078 877 1271 1217 1312 1133 1260 1586 1214 978 1021 1195 1028 1121 959 920 1231 1440 1576 769 326 274 309 354
0 0 0 0 20 101 517 496 207 607 401 483 876 1330 1222 1342 921 372 634 922 1284 821 1252 1638 1325 1236 1427 1177 937 897 892 853 917 751 750 780 833 795 560 532 428 230 170
0 0 0 59 0 88 697 429 490 882 139 393 758 1058 1296 1431 430 0 237 694 1177 1316 1625 1325 1461 1542 1567 1207 1037 991 840 780 796 502 410 349 227 231 490 472 178 51 27
0 0 0 0 0 174 714 340 575 616 534 674 540 1274 422 841 145 624 931 1226 1544 1805 1634 1583 1501 1772 1992 1493 1075 855 728 883 800 417 185 191 84 35 105 124 85 59 43
0 0 0 0 0 92 622 583 571 494 132 484 822 929 205 586 792 368 1145 1752 1530 1659 1358 1582 1266 1320 1798 1078 1003 1239 728 729 790 363 107 59 133 45 2 0 9 11 35
0 0 0 0 0 92 341 282 305 370 53 254 498 1308 971 574 1401 1141 1787 1941 1955 1715 1973 1786 1791 1338 1299 654 21 37 946 237 355 155 106 0 30 14 0 0 1 8 22
0 0 0 0 0 263 291 34 298 938 577 773 837 657 502 338 718 1565 1606 2070 2211 1724 1762 1712 1867 1517 918 70 17 0 77 160 0 0 0 14 40 22 2 1 1 12 23
0 0 0 0 41 286 422 404 471 363 226 407 692 408 640 723 329 1682 1759 1929 2102 1981 2026 1956 1743 1131 263 54 0 0 0 0 0 0 0 0 0 10 39 5 24 12 0
0 0 0 138 148 168 214 389 362 120 53 4 13 435 303 862 537 1547 1695 1857 1839 1902 1995 2088 1636 1263 132 2 0 0 0 0 0 0 0 0 0 0 0 4 23 0 0
0 0 0 379 221 109 187 553 311 31 2 149 40 877 652 1119 325 1731 1596 1975 2069 2154 1841 1700 1310 299 41 1 0 0 0 0 0 0 0 0 0 0 0 0 0 0 0
0 0 0 489 258 197 114 505 809 366 105 67 181 824 430 676 571 1521 1468 1958 2072 2305 1884 1817 1126 174 0 0 0 0 0 0 0 0 0 0 0 0 0 0 0 0 0